Skip Page Navigation
NASA JPL Caltech
NASA Logo - Jet Propulsion Laboratory + View the NASA Portal
+ Center for Near-Earth Object Studies
JPL Home Earth Solar System Stars & Galaxies Technology
JPL Solar System Dynamics
BODIES ORBITS EPHEMERIDES TOOLS PHYSICAL DATA DISCOVERY FAQ SITE MAP
JPL Small-Body Database Browser
Search: [ help ]  
16705 Reinhardt (1995 EO8)
Classification: Main-belt Asteroid          SPK-ID: 2016705
Ephemeris | Orbit Diagram | Orbital Elements | Mission Design | Physical Parameters | Discovery Circumstances ]

[ show orbit diagram ]
Orbital Elements at Epoch 2459200.5 (2020-Dec-17.0) TDB
Reference: JPL 24 (heliocentric ecliptic J2000)
 Element Value Uncertainty (1-sigma)   Units 
e .1003693582030086 4.3197e-08  
a 2.478989688415493 1.0513e-08 au
q 2.230175084397354 1.0796e-07 au
i 7.029304647541959 5.0389e-06 deg
node 14.53299975205812 2.9658e-05 deg
peri 175.3595068338889 3.7125e-05 deg
M 198.4455613207758 2.5403e-05 deg
tp 2459840.274463371782
(2022-Sep-17.77446337)
0.00010313 TDB
period 1425.64208508782
3.90
9.069e-06
2.483e-08
d
yr
n .2525177979561566 1.6063e-09 deg/d
Q 2.727804292433632 1.1568e-08 au
  Orbit Determination Parameters
   # obs. used (total)      1561  
   data-arc span      10973 days (30.04 yr)  
   first obs. used      1991-02-20  
   last obs. used      2021-03-07  
   planetary ephem.      DE441  
   SB-pert. ephem.      SB441-N16  
   condition code      0  
   norm. resid. RMS      .48324  
   source      ORB  
   producer      Otto Matic  
   solution date      2021-Apr-13 01:39:25  

Additional Information
 Earth MOID = 1.22971 au 
 Jupiter MOID = 2.22662 au 
 T_jup = 3.462 
[ show covariance matrix ]

Ephemeris | Orbit Diagram | Orbital Elements | Mission Design | Physical Parameters | Discovery Circumstances ]

Physical Parameter Table
Parameter Symbol Value Units Sigma Reference Notes
absolute magnitude H 14.35   n/a E2021B10  
diameter diameter 3.196 km 1.320 urn:nasa:pds:neowise_diameters_albedos::2.0[mainbelt] (http://adsabs.harvard.edu/abs/2011ApJ...741...68M)  
geometric albedo albedo 0.396   0.255 urn:nasa:pds:neowise_diameters_albedos::2.0[mainbelt] (http://adsabs.harvard.edu/abs/2011ApJ...741...68M)  

16705 Reinhardt           Discovered 1995 Mar. 4 by F. Borngen at Tautenburg.
Austrian stage director and theater manager Max Reinhardt (Max Goldmann, 1873-1943) worked mainly in Berlin and Vienna. He was a cofounder of the "Salzburger Festspiele". His productions of classic dramas caused an enormous stir. In 1933 he emigrated from Germany.
NOTE: some special characters may not display properly (any characters within {} are an attempt to place the proper accent above a character)
Reference: 20010309/MPCPages.arcLast Updated: 2009-05-11

Alternate Designations
 1995 EO8 = 1991 DE1 = 1991 EO6 = 1999 ES3 
Ephemeris | Orbit Diagram | Orbital Elements | Mission Design | Physical Parameters | Discovery Circumstances ]
ABOUT SSD CREDITS/AWARDS PRIVACY/COPYRIGHT GLOSSARY LINKS
FirstGov 2021-Apr-15 06:25 UT
(server date/time)  
NASA Home Page
Site Manager:   Ryan S. Park
Webmaster  Alan B. Chamberlin